Wind_Speed
57 59 60 62 63 65 66 67 67 68 68 68 68 69 69 69 69 69 69 69 69 69 69 69 68 68 69 69 69 69 69 68 66 64 64 65 66 67 68 68 68 67 67
63 65 66 67 69 69 70 70 70 70 70 70 70 70 70 69 69 69 68 68 69 68 68 69 68 68 69 69 69 69 68 67 66 63 63 64 65 66 67 66 66 67 67
68 69 70 71 72 73 73 72 72 72 71 71 71 71 70 69 69 68 68 68 68 68 67 68 67 68 68 67 68 67 67 66 65 64 63 63 64 65 65 66 66 66 66
72 73 74 74 75 75 74 74 73 72 71 71 71 70 69 69 68 68 68 67 67 66 66 66 66 66 66 66 66 65 64 64 64 63 63 62 63 63 64 64 64 64 64
75 76 76 76 76 76 75 74 73 72 71 70 70 69 68 67 67 67 67 66 65 64 64 64 64 65 64 63 63 62 62 62 62 62 61 61 61 61 62 63 63 63 63
78 78 78 77 76 75 73 72 71 70 69 68 67 66 65 65 65 65 64 64 63 62 61 61 61 60 60 61 60 60 60 60 60 59 59 59 59 60 61 62 62 62 61
79 79 78 76 74 72 71 70 68 67 67 66 65 64 62 62 62 62 62 61 60 59 58 57 57 57 58 58 58 59 59 58 58 58 58 57 58 59 60 60 60 61 60
79 77 75 73 71 69 68 66 66 65 63 63 61 60 59 59 59 58 57 57 56 55 55 55 54 54 54 54 55 55 55 55 55 56 56 56 57 58 58 59 59 59 58
75 73 70 69 67 65 63 62 61 60 59 59 57 57 56 55 55 54 54 53 53 53 53 52 52 51 52 53 53 52 52 52 54 55 55 55 54 55 56 57 57 57 56
71 69 66 64 62 60 59 58 58 57 56 55 53 53 52 52 52 51 51 51 50 50 49 49 49 49 50 50 50 50 50 50 51 52 52 53 52 53 54 54 54 55 54
67 64 62 59 58 57 56 55 55 54 53 51 50 50 50 50 49 49 49 49 48 47 47 46 47 48 48 48 48 48 48 49 49 49 49 49 50 50 51 51 52 52 52
63 60 57 56 55 54 54 53 52 51 49 48 47 47 47 47 47 47 46 46 46 45 44 44 45 46 46 46 46 46 47 47 47 46 46 46 47 47 47 48 48 48 48
59 56 55 53 52 52 52 50 49 47 46 45 45 44 44 44 44 44 43 43 43 43 43 43 43 44 44 44 44 44 45 45 45 44 43 43 44 44 44 44 45 45 45
57 55 53 52 51 50 49 47 46 45 44 43 42 42 41 41 41 41 41 41 41 41 41 41 41 41 42 42 42 42 42 42 42 41 40 40 41 42 42 42 43 43 43
55 53 51 49 48 46 45 44 43 42 42 42 41 41 40 39 39 39 39 38 38 38 39 39 39 39 39 39 39 39 40 40 39 38 38 38 38 39 39 40 41 41 41
53 50 48 46 45 44 42 41 41 41 40 40 41 40 39 39 38 37 37 37 37 37 37 36 36 36 37 37 37 37 38 37 37 37 36 36 37 37 38 39 39 39 40
50 48 46 45 44 43 42 41 39 38 38 39 39 38 38 37 37 36 36 35 35 35 34 34 35 35 36 36 35 35 35 34 34 34 34 35 36 36 36 37 38 38 38
48 46 45 44 43 42 41 40 39 37 36 36 36 36 36 35 35 34 33 33 33 33 33 33 34 34 34 33 33 33 33 33 33 33 33 34 34 34 35 36 36 37 37
45 43 42 42 41 40 39 38 38 37 37 36 34 34 34 33 33 32 31 31 32 32 32 33 33 33 32 32 31 32 32 32 32 32 32 33 33 33 34 34 35 35 36
43 42 41 41 40 39 38 37 36 36 36 35 33 32 31 31 30 30 30 30 31 31 31 31 31 31 31 30 30 30 30 30 30 31 31 31 32 33 33 33 33 34 34
41 40 40 39 38 37 37 36 35 35 35 33 32 31 30 29 29 29 29 30 29 29 29 29 29 28 28 27 27 27 28 28 29 29 29 30 31 32 32 32 32 32 33
40 39 38 37 36 36 36 35 34 34 34 32 30 29 28 28 28 29 29 28 27 27 27 27 26 26 26 25 25 26 27 27 27 28 28 29 30 31 30 30 31 31 32
38 36 36 35 35 34 34 34 33 33 31 30 28 27 27 28 28 28 27 26 26 26 26 25 25 24 23 23 24 25 25 26 26 26 27 28 28 28 29 29 30 30 30
35 34 33 33 32 32 32 32 31 31 30 28 28 27 28 27 27 26 25 25 25 25 24 24 23 23 22 23 23 24 24 24 25 25 26 27 27 27 27 27 28 28 27
33 32 32 31 31 31 31 30 30 29 28 27 27 27 27 26 26 25 25 24 24 23 23 23 22 21 21 22 23 23 23 23 24 25 25 26 26 26 26 26 26 26 25
31 31 30 30 30 30 29 29 29 28 27 26 26 26 26 26 25 25 24 24 23 23 22 22 21 21 21 22 22 22 21 22 23 24 24 25 25 25 25 25 25 24 24
Wind_Direction
299 297 296 295 293 292 291 290 289 288 287 286 285 284 284 283 282 281 281 280 280 280 279 279 279 279 278 279 279 279 278 278 277 276 275 274 274 274 274 274 273 273 274
299 298 297 295 294 293 292 291 290 289 288 287 286 285 284 283 281 281 280 280 280 280 279 279 279 278 278 278 278 278 277 277 277 276 275 275 274 274 273 273 274 274 274
299 298 297 296 295 294 293 292 291 290 288 287 286 285 284 282 281 281 280 280 280 280 280 280 279 279 279 278 277 277 276 276 276 275 275 274 274 273 273 273 274 274 274
299 298 297 296 296 295 294 293 292 290 288 287 286 284 283 282 281 280 280 279 280 280 280 280 279 278 278 278 277 277 277 276 276 276 275 274 274 273 273 274 273 274 274
300 299 298 297 296 296 295 293 292 290 288 287 285 284 283 282 281 281 280 280 281 281 280 280 279 278 278 277 277 277 276 276 276 276 275 274 274 274 273 273 273 273 273
301 300 299 299 298 297 295 294 292 290 289 287 286 284 283 282 282 282 281 281 281 281 281 281 280 278 277 276 276 276 276 276 275 275 275 275 274 274 273 272 272 273 273
302 301 300 299 299 298 296 294 293 291 290 289 287 286 284 284 284 284 283 283 283 283 282 282 280 278 277 277 276 276 276 275 275 275 275 275 274 273 272 272 273 274 274
303 302 301 300 299 298 296 295 294 293 292 291 289 287 286 285 285 284 284 284 284 283 282 281 280 279 278 278 277 277 277 276 276 275 275 274 274 273 273 273 273 274 274
305 304 303 301 300 299 298 297 295 294 293 292 290 288 286 286 285 284 284 284 284 283 283 282 281 280 279 278 278 277 277 276 276 276 277 275 274 274 273 273 274 275 276
306 305 304 303 301 300 299 298 297 296 294 292 291 290 288 287 285 285 284 284 284 284 283 282 281 281 280 279 278 278 277 277 277 277 277 276 275 275 275 275 276 277 277
308 307 305 304 303 302 301 301 300 298 296 294 292 291 290 289 287 287 286 286 285 284 283 282 281 281 280 280 279 279 278 278 278 278 277 276 276 276 276 277 278 279 279
309 308 306 306 305 304 303 302 301 299 298 296 295 294 292 291 290 289 288 287 286 285 284 283 282 282 282 281 280 280 279 280 280 279 278 277 277 276 276 278 279 280 280
310 309 308 307 306 305 304 303 302 301 300 298 297 295 294 293 292 291 289 288 287 287 285 284 284 284 283 282 282 281 281 281 280 280 279 278 277 276 277 278 279 281 281
311 310 309 308 308 307 306 305 304 303 302 301 299 298 297 295 293 292 291 290 289 288 287 286 285 285 284 284 283 282 282 281 281 281 279 278 278 278 278 279 280 281 282
312 312 311 310 310 308 307 306 306 305 304 303 301 300 299 297 295 293 293 292 291 290 289 288 286 286 286 286 284 284 283 283 282 281 279 279 279 280 280 280 281 282 283
313 313 313 312 311 310 309 308 307 307 306 305 304 302 301 299 298 296 296 295 294 292 291 290 288 287 287 287 286 284 284 283 282 281 280 280 281 281 281 281 282 284 285
313 313 313 313 313 312 311 311 309 308 307 307 306 304 303 301 300 298 297 297 296 295 293 291 290 290 290 288 287 285 285 284 283 282 282 282 283 283 283 283 285 286 286
314 314 314 315 315 314 313 313 313 311 309 309 308 306 305 304 302 301 299 298 298 297 296 294 292 292 291 289 287 286 285 285 284 284 284 284 285 285 285 286 286 286 287
314 314 315 315 315 315 315 315 314 313 312 311 310 308 307 306 305 303 302 301 300 299 298 297 295 294 292 290 288 287 286 285 285 285 285 286 287 287 288 288 288 287 288
314 314 315 315 316 316 317 316 316 315 315 314 312 310 309 309 308 307 305 304 303 302 301 299 297 295 293 291 289 288 287 286 286 287 287 287 288 289 290 289 289 289 289
314 314 315 315 315 316 317 317 317 317 317 316 314 313 312 312 312 311 310 308 307 306 305 303 300 298 296 294 291 290 289 289 289 289 288 289 290 291 291 290 290 290 291
314 315 315 315 316 317 318 319 319 319 319 318 317 317 316 316 315 314 313 312 311 309 309 307 304 302 299 296 294 293 292 292 291 290 290 291 293 293 292 292 292 293 292
315 315 315 316 317 318 319 320 321 321 320 319 319 319 319 319 318 318 318 316 315 314 312 311 309 306 303 301 299 298 296 295 294 293 294 295 296 296 295 294 294 294 293
315 316 317 317 318 319 321 322 322 322 321 321 321 321 321 321 321 322 322 321 321 319 317 314 312 309 307 306 305 304 301 298 297 297 298 298 298 298 297 296 296 295 293
317 318 318 319 320 322 323 324 324 323 323 323 324 325 325 325 324 324 324 324 325 324 322 321 318 315 314 312 311 308 304 302 301 301 300 301 301 300 300 299 298 296 293
319 319 320 320 322 323 324 325 325 325 324 325 326 328 328 327 327 326 326 326 326 326 325 324 322 320 320 319 318 315 311 308 307 305 304 304 304 303 302 302 301 297 294
Height
5678 5671 5665 5658 5650 5644 5637 5630 5623 5617 5610 5604 5598 5593 5587 5582 5576 5571 5567 5562 5557 5554 5549 5545 5542 5537 5532 5528 5523 5520 5516 5513 5512 5516 5512 5508 5505 5502 5500 5498 5497 5495 5494
5662 5654 5647 5639 5631 5624 5617 5609 5602 5596 5589 5582 5576 5571 5565 5560 5555 5549 5545 5541 5536 5533 5529 5524 5521 5516 5512 5508 5503 5500 5496 5493 5492 5493 5492 5488 5485 5482 5480 5478 5477 5475 5474
5643 5635 5627 5619 5610 5603 5595 5587 5580 5573 5567 5560 5553 5548 5543 5538 5533 5528 5523 5520 5516 5512 5508 5503 5500 5494 5491 5487 5482 5479 5476 5473 5471 5471 5472 5468 5465 5462 5460 5458 5456 5455 5453
5624 5615 5607 5598 5589 5581 5573 5565 5557 5550 5543 5537 5531 5525 5520 5515 5510 5506 5501 5498 5495 5491 5487 5483 5478 5473 5470 5466 5462 5460 5457 5454 5452 5451 5451 5449 5445 5442 5440 5439 5437 5435 5433
5603 5594 5585 5576 5567 5558 5550 5542 5534 5527 5520 5514 5508 5503 5497 5492 5488 5483 5480 5477 5473 5470 5466 5462 5457 5453 5449 5445 5443 5440 5437 5435 5432 5431 5430 5428 5426 5423 5421 5418 5417 5415 5414
5582 5572 5562 5553 5545 5536 5527 5519 5512 5504 5498 5491 5486 5480 5476 5471 5466 5462 5458 5456 5453 5449 5446 5441 5436 5432 5429 5425 5423 5421 5419 5416 5414 5412 5411 5409 5408 5404 5401 5398 5397 5396 5396
5560 5550 5540 5530 5522 5514 5505 5497 5490 5483 5477 5471 5465 5460 5455 5451 5445 5442 5438 5436 5433 5430 5426 5421 5417 5413 5409 5407 5404 5402 5400 5398 5396 5394 5392 5391 5388 5385 5381 5380 5377 5376 5376
5538 5528 5518 5509 5501 5493 5485 5477 5470 5463 5457 5451 5445 5440 5436 5432 5426 5423 5419 5416 5414 5411 5407 5402 5399 5396 5392 5389 5386 5384 5382 5379 5377 5375 5374 5372 5369 5366 5363 5361 5359 5357 5357
5517 5507 5498 5488 5480 5473 5465 5458 5451 5444 5438 5432 5427 5421 5417 5413 5408 5404 5401 5399 5396 5393 5389 5385 5381 5379 5375 5371 5370 5368 5366 5363 5359 5357 5355 5353 5351 5348 5345 5343 5341 5339 5339
5497 5488 5479 5469 5461 5454 5447 5440 5433 5426 5420 5415 5409 5404 5399 5395 5391 5387 5384 5381 5379 5376 5372 5368 5365 5362 5359 5355 5353 5352 5349 5346 5343 5340 5338 5335 5333 5330 5327 5325 5323 5321 5320
5479 5470 5461 5453 5444 5437 5430 5423 5416 5410 5404 5399 5393 5389 5383 5379 5375 5371 5367 5364 5362 5359 5356 5353 5349 5345 5343 5340 5337 5335 5333 5329 5327 5324 5322 5319 5316 5314 5311 5308 5306 5303 5301
5463 5454 5446 5438 5429 5422 5415 5408 5401 5395 5389 5384 5379 5374 5369 5364 5360 5356 5352 5348 5345 5343 5340 5337 5334 5330 5327 5324 5322 5319 5316 5314 5311 5309 5306 5304 5301 5298 5295 5292 5290 5287 5285
5448 5439 5431 5423 5415 5408 5400 5394 5387 5381 5375 5370 5364 5360 5356 5351 5346 5341 5338 5334 5331 5328 5325 5322 5319 5316 5312 5309 5307 5304 5301 5299 5296 5294 5292 5289 5286 5283 5280 5278 5275 5272 5270
5433 5425 5417 5409 5402 5395 5387 5380 5374 5368 5362 5357 5352 5347 5342 5338 5333 5329 5325 5321 5317 5314 5311 5308 5305 5301 5298 5296 5293 5290 5287 5284 5282 5279 5277 5274 5272 5269 5266 5264 5261 5258 5256
5420 5412 5404 5397 5389 5383 5376 5369 5362 5357 5349 5344 5339 5334 5330 5326 5321 5317 5312 5309 5305 5301 5298 5295 5291 5288 5285 5282 5279 5276 5273 5271 5268 5266 5264 5261 5259 5256 5253 5250 5248 5245 5242
5407 5400 5392 5385 5378 5371 5365 5359 5352 5346 5340 5333 5328 5322 5317 5313 5309 5305 5300 5296 5292 5289 5285 5282 5279 5276 5273 5270 5267 5264 5261 5258 5255 5253 5251 5249 5246 5243 5241 5238 5235 5232 5229
5395 5387 5381 5374 5367 5360 5353 5347 5342 5337 5330 5323 5317 5312 5306 5302 5297 5293 5289 5285 5281 5277 5274 5271 5267 5264 5261 5258 5255 5252 5249 5246 5244 5241 5239 5237 5234 5231 5228 5225 5222 5219 5216
5384 5377 5369 5363 5356 5349 5343 5337 5331 5325 5320 5315 5308 5302 5297 5292 5287 5282 5278 5274 5271 5267 5263 5259 5256 5253 5249 5246 5243 5240 5238 5235 5233 5230 5228 5225 5222 5219 5216 5213 5210 5206 5203
5374 5367 5360 5353 5347 5340 5334 5327 5321 5315 5310 5304 5299 5294 5288 5282 5277 5273 5268 5265 5261 5257 5253 5249 5245 5242 5238 5235 5232 5230 5227 5225 5222 5220 5217 5214 5211 5208 5205 5202 5198 5194 5190
5364 5357 5350 5344 5338 5331 5325 5319 5313 5307 5301 5295 5290 5284 5279 5274 5269 5264 5260 5255 5251 5247 5243 5239 5235 5231 5228 5225 5222 5220 5217 5214 5212 5209 5206 5204 5200 5197 5194 5190 5186 5183 5179
5354 5348 5342 5335 5329 5323 5317 5310 5304 5299 5293 5287 5281 5276 5271 5266 5261 5256 5251 5247 5242 5238 5234 5229 5226 5222 5219 5216 5213 5210 5207 5205 5202 5199 5196 5193 5190 5187 5183 5179 5175 5172 5168
5345 5339 5333 5327 5321 5315 5309 5303 5297 5291 5285 5280 5274 5269 5263 5258 5253 5248 5243 5238 5234 5229 5225 5221 5217 5214 5210 5207 5204 5201 5199 5196 5193 5190 5187 5184 5180 5176 5172 5169 5165 5161 5157
5336 5331 5325 5319 5313 5308 5302 5296 5290 5284 5278 5273 5267 5262 5257 5252 5246 5241 5236 5231 5227 5222 5218 5214 5210 5206 5203 5200 5197 5193 5190 5187 5184 5181 5178 5174 5170 5166 5163 5159 5155 5151 5148
5328 5323 5317 5312 5306 5301 5295 5289 5284 5278 5272 5267 5261 5256 5251 5246 5240 5235 5230 5225 5221 5216 5212 5208 5204 5200 5196 5193 5189 5186 5182 5179 5175 5172 5169 5165 5161 5157 5154 5150 5146 5142 5138
5321 5315 5310 5305 5300 5294 5289 5283 5278 5272 5266 5261 5256 5251 5245 5240 5235 5230 5225 5220 5216 5211 5206 5202 5198 5194 5190 5186 5182 5178 5174 5171 5167 5163 5160 5156 5153 5149 5145 5141 5138 5134 5130
5314 5309 5304 5299 5293 5288 5283 5278 5272 5266 5261 5256 5251 5246 5241 5235 5230 5225 5220 5216 5211 5206 5202 5197 5193 5189 5185 5181 5176 5172 5168 5164 5160 5156 5152 5148 5145 5141 5137 5133 5130 5126 5122